Location: Helion Bumpstead
(52.0500°N, 0.4000°E)
Time: 22:16:25
(UTC+00:00)

Cosmos 1725 Rocket - Pass Details

Date: 22 February 2026
Orbit: 962 x 989 km, 82.9° (Epoch: 11 March)

Event Time Altitude Azimuth Distance (km) Brightness Sun altitude
Rises 17:53:49 0° 343° (NNW) 3,689 7.1 -5.1°
Reaches altitude 10° 17:56:43 10° 331° (NNW) 2,741 6.6 -5.6°
Maximum altitude 18:01:46 26° 278° (W) 1,822 6.5 -6.3°
Drops below altitude 10° 18:06:48 10° 224° (SW) 2,740 7.2 -7.1°
Sets 18:09:43 0° 212° (SSW) 3,686 7.6 -7.5°
